Flag for Canada Weather past 2 weeks in Trois-Rivieres, Quebec, Canada

Now
49 °F

Cool.


Feels Like: 44 °F
Forecast: N/A
Wind: 13 mph from North

Location: Trois Rivieres


UV Index: N/A

Visibility: N/A


Pressure: 29.60 "Hg

Humidity: 55%

Dew point: 33 °F

Location of Trois-RivieresLocation

Historic Weather in Trois-Rivieres

°F

Trois-Rivieres temperature yesterday

Maximum temperature yesterday: 46 °F (at 2:00 AM)
Minimum temperature yesterday: 40 °F (at 4:00 AM)
Average temperature yesterday: 42 °F

Past Weeks' High & Low Weather Summary

 TemperatureHumidityPressure
High56 °F (Apr 15, 12:00 PM)100% (Apr 15, 9:00 AM)30.82 "Hg (Apr 15, 9:00 AM)
Low17 °F (Apr 16, 8:00 AM)25% (Apr 19, 7:00 PM)29.21 "Hg (Apr 8, 4:00 PM)
Average39 °F71%29.99 "Hg
* Reported Apr 8 3:00 PM — Apr 23 3:00 PM, Trois-Rivieres, Weather by CustomWeather, © 2014

Note: Actual official high and low records may vary slightly from our data, if they occured in-between our weather recording intervals... More about our weather records

Advertising

Historic Weather Conditions — Data for Previous 24 hours

 ConditionsComfort  
Time TempWeatherWind HumidityBarometerVisibility
3:00 PM
Apr 23
49 °FCool.13 mph55%29.60 "HgN/A
2:00 PM49 °FCool.14 mph55%29.59 "HgN/A
1:00 PM49 °FCool.15 mph56%29.57 "HgN/A
12:00 PM48 °FCool.17 mph59%29.57 "HgN/A
11:00 AM46 °FCool.13 mph64%29.57 "HgN/A
10:00 AM44 °FQuite cool.16 mph67%29.57 "HgN/A
9:00 AM43 °FQuite cool.14 mph71%29.56 "HgN/A
8:00 AM42 °FQuite cool.12 mph78%29.54 "HgN/A
7:00 AM41 °FQuite cool.10 mph82%29.52 "HgN/A
6:00 AM41 °FQuite cool.8 mph84%29.50 "HgN/A
5:00 AM41 °FQuite cool.7 mph85%29.48 "HgN/A
4:00 AM42 °FQuite cool.7 mph88%29.46 "HgN/A
3:00 AM42 °FQuite cool.6 mph91%29.46 "HgN/A
2:00 AM40 °FChilly.2 mph97%29.46 "HgN/A
1:00 AM40 °FChilly.No wind96%29.46 "HgN/A
12:00 AM41 °FQuite cool.5 mph94%29.46 "HgN/A
11:00 PM
Apr 22
42 °FQuite cool.8 mph92%29.46 "HgN/A
10:00 PM41 °FQuite cool.10 mph95%29.48 "HgN/A
9:00 PM40 °FQuite cool.7 mph94%29.47 "HgN/A
8:00 PM41 °FQuite cool.7 mph94%29.46 "HgN/A
7:00 PM41 °FQuite cool.7 mph96%29.47 "HgN/A
6:00 PM41 °FQuite cool.8 mph95%29.47 "HgN/A
5:00 PM41 °FQuite cool.9 mph94%29.48 "HgN/A
4:00 PM42 °FQuite cool.9 mph94%29.49 "HgN/A
Weather by CustomWeather, © 2014

See weather overview